QPF
0.00 0.00 0.00 0.02 0.05 0.07 0.04 0.02 0.01 0.01 0.01 0.01 0.00 0.00 0.00 0.00 0.00 0.00 0.00 0.00 0.00 0.00 0.00 0.00 0.00 0.00 0.00 0.01 0.01 0.01 0.00 0.00 0.01 0.02 0.02 0.02 0.02 0.03 0.03 0.04 0.03 0.03 0.03 0.03
0.00 0.00 0.02 0.03 0.04 0.04 0.02 0.01 0.00 0.01 0.01 0.00 0.00 0.00 0.00 0.00 0.00 0.00 0.00 0.00 0.00 0.00 0.00 0.00 0.00 0.00 0.00 0.00 0.00 0.00 0.00 0.00 0.01 0.02 0.03 0.03 0.03 0.03 0.04 0.04 0.03 0.04 0.03 0.04
0.02 0.02 0.02 0.02 0.03 0.02 0.00 0.00 0.01 0.01 0.00 0.00 0.00 0.00 0.00 0.00 0.00 0.00 0.00 0.00 0.00 0.00 0.00 0.00 0.00 0.00 0.00 0.00 0.00 0.00 0.00 0.01 0.00 0.01 0.02 0.02 0.02 0.02 0.03 0.04 0.04 0.03 0.03 0.03
0.04 0.04 0.02 0.03 0.03 0.02 0.01 0.01 0.01 0.00 0.00 0.00 0.00 0.00 0.00 0.00 0.00 0.00 0.00 0.00 0.00 0.00 0.00 0.00 0.00 0.00 0.00 0.00 0.00 0.00 0.00 0.01 0.00 0.00 0.01 0.01 0.02 0.03 0.04 0.04 0.04 0.03 0.02 0.02
0.03 0.03 0.01 0.01 0.02 0.01 0.01 0.01 0.01 0.00 0.00 0.00 0.00 0.00 0.00 0.00 0.00 0.00 0.00 0.00 0.00 0.00 0.00 0.00 0.00 0.00 0.00 0.00 0.00 0.00 0.01 0.01 0.01 0.01 0.01 0.02 0.03 0.03 0.04 0.03 0.03 0.03 0.03 0.04
0.04 0.02 0.01 0.02 0.02 0.01 0.01 0.00 0.00 0.00 0.00 0.00 0.00 0.00 0.00 0.00 0.00 0.00 0.00 0.00 0.00 0.00 0.00 0.00 0.00 0.00 0.00 0.00 0.00 0.00 0.01 0.00 0.01 0.01 0.02 0.02 0.02 0.03 0.02 0.03 0.03 0.04 0.05 0.05
0.01 0.01 0.00 0.01 0.00 0.00 0.00 0.00 0.00 0.00 0.00 0.00 0.00 0.00 0.00 0.00 0.00 0.00 0.00 0.00 0.00 0.00 0.00 0.00 0.00 0.00 0.00 0.00 0.00 0.00 0.00 0.00 0.01 0.01 0.01 0.02 0.02 0.02 0.02 0.03 0.03 0.05 0.05 0.05
0.00 0.00 0.00 0.00 0.00 0.00 0.00 0.00 0.00 0.00 0.00 0.00 0.00 0.00 0.00 0.00 0.00 0.00 0.00 0.00 0.00 0.00 0.00 0.00 0.00 0.00 0.00 0.00 0.00 0.00 0.01 0.01 0.00 0.00 0.01 0.01 0.01 0.02 0.04 0.04 0.03 0.05 0.05 0.05
0.00 0.00 0.00 0.00 0.00 0.00 0.00 0.00 0.00 0.00 0.00 0.00 0.00 0.00 0.00 0.00 0.00 0.00 0.00 0.00 0.00 0.00 0.00 0.00 0.00 0.00 0.00 0.00 0.00 0.00 0.01 0.00 0.00 0.00 0.00 0.01 0.01 0.02 0.04 0.05 0.05 0.06 0.06 0.06
0.01 0.00 0.00 0.00 0.00 0.00 0.00 0.00 0.00 0.00 0.00 0.00 0.00 0.00 0.00 0.00 0.00 0.00 0.00 0.00 0.00 0.00 0.00 0.00 0.00 0.00 0.00 0.00 0.00 0.01 0.01 0.00 0.00 0.00 0.00 0.01 0.02 0.03 0.04 0.04 0.04 0.03 0.04 0.05
0.00 0.00 0.00 0.00 0.00 0.00 0.00 0.00 0.00 0.00 0.00 0.00 0.00 0.00 0.00 0.00 0.00 0.00 0.00 0.00 0.00 0.00 0.00 0.00 0.00 0.00 0.00 0.00 0.00 0.01 0.01 0.00 0.00 0.00 0.00 0.01 0.02 0.03 0.05 0.05 0.04 0.03 0.03 0.05
0.00 0.00 0.00 0.00 0.00 0.00 0.00 0.00 0.00 0.00 0.00 0.00 0.00 0.00 0.00 0.00 0.00 0.00 0.00 0.00 0.00 0.00 0.00 0.00 0.00 0.00 0.00 0.00 0.00 0.01 0.01 0.00 0.00 0.00 0.01 0.01 0.02 0.02 0.03 0.03 0.04 0.03 0.02 0.03
0.00 0.00 0.00 0.00 0.00 0.00 0.00 0.00 0.00 0.00 0.00 0.00 0.00 0.00 0.00 0.00 0.00 0.00 0.00 0.00 0.00 0.00 0.00 0.00 0.00 0.00 0.00 0.00 0.00 0.01 0.00 0.00 0.00 0.00 0.01 0.01 0.01 0.01 0.02 0.02 0.03 0.03 0.02 0.02
0.00 0.00 0.00 0.00 0.00 0.00 0.00 0.00 0.00 0.00 0.00 0.00 0.00 0.00 0.00 0.00 0.00 0.00 0.00 0.00 0.00 0.00 0.00 0.00 0.00 0.00 0.00 0.00 0.00 0.01 0.01 0.00 0.00 0.00 0.00 0.01 0.00 0.01 0.01 0.02 0.01 0.02 0.02 0.02
0.00 0.00 0.00 0.00 0.00 0.00 0.00 0.00 0.00 0.00 0.00 0.00 0.00 0.00 0.00 0.00 0.00 0.00 0.00 0.00 0.00 0.00 0.00 0.00 0.00 0.00 0.00 0.00 0.00 0.00 0.01 0.00 0.00 0.00 0.00 0.00 0.00 0.01 0.01 0.02 0.02 0.02 0.02 0.02
0.00 0.00 0.00 0.00 0.00 0.00 0.00 0.00 0.00 0.00 0.00 0.00 0.00 0.00 0.00 0.00 0.00 0.00 0.00 0.00 0.00 0.00 0.00 0.00 0.00 0.00 0.00 0.00 0.00 0.00 0.00 0.00 0.00 0.00 0.00 0.00 0.00 0.00 0.01 0.01 0.02 0.02 0.02 0.03
0.00 0.00 0.00 0.00 0.00 0.00 0.00 0.00 0.00 0.00 0.00 0.00 0.00 0.00 0.00 0.00 0.00 0.00 0.00 0.00 0.00 0.00 0.00 0.00 0.00 0.00 0.00 0.00 0.00 0.00 0.00 0.00 0.00 0.00 0.00 0.01 0.01 0.00 0.00 0.00 0.00 0.01 0.02 0.02
0.00 0.00 0.00 0.00 0.00 0.00 0.00 0.00 0.00 0.00 0.00 0.00 0.00 0.00 0.00 0.00 0.00 0.00 0.00 0.00 0.00 0.00 0.00 0.00 0.00 0.00 0.00 0.00 0.00 0.00 0.00 0.00 0.00 0.00 0.00 0.00 0.01 0.01 0.01 0.00 0.00 0.00 0.01 0.01
0.00 0.00 0.00 0.00 0.00 0.00 0.00 0.00 0.00 0.00 0.00 0.00 0.00 0.00 0.00 0.00 0.00 0.00 0.00 0.00 0.00 0.00 0.00 0.00 0.00 0.00 0.00 0.00 0.00 0.00 0.00 0.00 0.00 0.00 0.00 0.00 0.00 0.00 0.01 0.01 0.00 0.00 0.00 0.00
0.00 0.00 0.00 0.00 0.00 0.00 0.00 0.00 0.00 0.00 0.00 0.00 0.00 0.00 0.00 0.00 0.00 0.00 0.00 0.00 0.00 0.00 0.00 0.00 0.00 0.00 0.00 0.00 0.00 0.00 0.00 0.00 0.00 0.00 0.00 0.00 0.00 0.00 0.00 0.01 0.01 0.00 0.00 0.01
0.00 0.00 0.00 0.00 0.00 0.00 0.00 0.00 0.00 0.00 0.00 0.00 0.00 0.00 0.00 0.00 0.00 0.00 0.00 0.00 0.00 0.00 0.00 0.00 0.00 0.00 0.00 0.00 0.00 0.00 0.00 0.00 0.00 0.00 0.00 0.00 0.00 0.00 0.00 0.00 0.00 0.01 0.00 0.00
0.00 0.00 0.00 0.00 0.00 0.00 0.00 0.00 0.00 0.00 0.00 0.00 0.00 0.00 0.00 0.00 0.00 0.00 0.00 0.00 0.00 0.00 0.00 0.00 0.00 0.00 0.00 0.00 0.00 0.00 0.00 0.00 0.00 0.00 0.00 0.00 0.00 0.00 0.00 0.00 0.00 0.00 0.00 0.00
0.00 0.00 0.00 0.00 0.00 0.00 0.00 0.00 0.00 0.00 0.00 0.00 0.00 0.00 0.00 0.00 0.00 0.00 0.00 0.00 0.00 0.00 0.00 0.00 0.00 0.00 0.00 0.00 0.00 0.00 0.00 0.00 0.00 0.00 0.00 0.00 0.00 0.00 0.00 0.00 0.00 0.00 0.00 0.00
0.00 0.00 0.00 0.00 0.00 0.00 0.00 0.00 0.00 0.00 0.00 0.00 0.00 0.00 0.00 0.00 0.00 0.00 0.00 0.00 0.00 0.00 0.00 0.00 0.00 0.00 0.00 0.00 0.00 0.00 0.00 0.00 0.00 0.00 0.00 0.00 0.00 0.00 0.00 0.00 0.00 0.00 0.00 0.00
0.00 0.00 0.00 0.00 0.00 0.00 0.00 0.00 0.00 0.00 0.00 0.00 0.00 0.00 0.00 0.00 0.00 0.00 0.00 0.00 0.00 0.00 0.00 0.00 0.00 0.00 0.00 0.00 0.00 0.00 0.00 0.00 0.00 0.00 0.00 0.00 0.00 0.00 0.00 0.00 0.00 0.00 0.00 0.00
0.00 0.00 0.00 0.00 0.00 0.00 0.00 0.00 0.00 0.00 0.00 0.00 0.00 0.00 0.00 0.00 0.00 0.00 0.00 0.00 0.00 0.00 0.00 0.00 0.00 0.00 0.00 0.00 0.00 0.00 0.00 0.00 0.00 0.00 0.00 0.00 0.00 0.00 0.00 0.00 0.00 0.00 0.00 0.00
MSLP
1010.15 1011.27 1012.29 1013.16 1013.84 1014.34 1014.68 1014.86 1014.93 1014.91 1014.81 1014.64 1014.43 1014.18 1013.92 1013.67 1013.47 1013.34 1013.29 1013.33 1013.45 1013.63 1013.85 1014.08 1014.29 1014.46 1014.58 1014.65 1014.66 1014.63 1014.56 1014.47 1014.35 1014.23 1014.10 1013.97 1013.83 1013.70 1013.55 1013.38 1013.19 1012.97 1012.73 1012.47
1010.76 1011.74 1012.61 1013.33 1013.88 1014.29 1014.57 1014.73 1014.80 1014.78 1014.69 1014.52 1014.29 1014.01 1013.72 1013.46 1013.24 1013.12 1013.10 1013.19 1013.38 1013.62 1013.90 1014.17 1014.39 1014.54 1014.63 1014.65 1014.61 1014.55 1014.47 1014.40 1014.33 1014.27 1014.22 1014.16 1014.08 1013.98 1013.84 1013.67 1013.46 1013.21 1012.95 1012.68
1011.13 1011.93 1012.61 1013.17 1013.60 1013.93 1014.18 1014.36 1014.47 1014.51 1014.47 1014.35 1014.14 1013.88 1013.58 1013.30 1013.09 1012.98 1012.99 1013.12 1013.36 1013.66 1013.97 1014.26 1014.48 1014.61 1014.65 1014.62 1014.54 1014.45 1014.37 1014.32 1014.30 1014.31 1014.33 1014.34 1014.32 1014.25 1014.12 1013.93 1013.70 1013.43 1013.14 1012.85
1011.28 1011.89 1012.38 1012.79 1013.12 1013.41 1013.67 1013.91 1014.12 1014.26 1014.32 1014.27 1014.12 1013.87 1013.58 1013.29 1013.06 1012.94 1012.95 1013.10 1013.36 1013.69 1014.03 1014.33 1014.55 1014.65 1014.66 1014.59 1014.48 1014.37 1014.29 1014.26 1014.29 1014.36 1014.44 1014.50 1014.52 1014.47 1014.34 1014.13 1013.87 1013.57 1013.25 1012.94
1011.30 1011.71 1012.04 1012.33 1012.60 1012.89 1013.21 1013.56 1013.89 1014.17 1014.35 1014.39 1014.29 1014.07 1013.76 1013.43 1013.16 1012.99 1012.97 1013.11 1013.37 1013.70 1014.06 1014.37 1014.58 1014.68 1014.68 1014.58 1014.45 1014.33 1014.25 1014.24 1014.30 1014.40 1014.53 1014.62 1014.66 1014.62 1014.47 1014.24 1013.95 1013.61 1013.26 1012.92
1011.29 1011.53 1011.73 1011.93 1012.19 1012.52 1012.94 1013.41 1013.90 1014.32 1014.62 1014.74 1014.68 1014.45 1014.10 1013.71 1013.36 1013.11 1013.03 1013.11 1013.34 1013.67 1014.03 1014.35 1014.58 1014.69 1014.69 1014.60 1014.46 1014.34 1014.26 1014.26 1014.33 1014.45 1014.58 1014.69 1014.73 1014.67 1014.51 1014.25 1013.92 1013.55 1013.17 1012.80
1011.32 1011.44 1011.55 1011.72 1011.98 1012.38 1012.91 1013.52 1014.14 1014.69 1015.09 1015.27 1015.23 1014.97 1014.55 1014.06 1013.60 1013.25 1013.07 1013.09 1013.27 1013.58 1013.94 1014.27 1014.53 1014.67 1014.69 1014.62 1014.50 1014.38 1014.30 1014.29 1014.35 1014.47 1014.59 1014.69 1014.71 1014.63 1014.45 1014.16 1013.80 1013.41 1013.01 1012.62
1011.44 1011.48 1011.54 1011.70 1012.00 1012.47 1013.10 1013.82 1014.55 1015.19 1015.65 1015.86 1015.80 1015.48 1014.98 1014.38 1013.81 1013.34 1013.07 1013.00 1013.13 1013.42 1013.78 1014.14 1014.43 1014.61 1014.67 1014.63 1014.53 1014.42 1014.34 1014.32 1014.36 1014.45 1014.55 1014.62 1014.62 1014.52 1014.31 1014.01 1013.64 1013.23 1012.82 1012.43
1011.63 1011.63 1011.68 1011.85 1012.20 1012.72 1013.41 1014.20 1014.99 1015.67 1016.14 1016.34 1016.23 1015.85 1015.26 1014.57 1013.89 1013.33 1012.97 1012.84 1012.92 1013.19 1013.55 1013.94 1014.27 1014.50 1014.60 1014.60 1014.53 1014.43 1014.34 1014.30 1014.32 1014.38 1014.45 1014.49 1014.47 1014.36 1014.15 1013.85 1013.48 1013.08 1012.68 1012.30
1011.82 1011.82 1011.89 1012.09 1012.46 1013.02 1013.73 1014.52 1015.31 1015.97 1016.41 1016.56 1016.40 1015.96 1015.31 1014.55 1013.81 1013.19 1012.77 1012.59 1012.65 1012.90 1013.27 1013.68 1014.04 1014.31 1014.47 1014.51 1014.46 1014.37 1014.29 1014.24 1014.23 1014.26 1014.30 1014.33 1014.30 1014.19 1013.99 1013.71 1013.37 1013.00 1012.63 1012.28
1011.94 1011.98 1012.09 1012.31 1012.70 1013.24 1013.92 1014.67 1015.39 1015.98 1016.35 1016.44 1016.23 1015.75 1015.07 1014.29 1013.54 1012.90 1012.47 1012.29 1012.34 1012.58 1012.95 1013.37 1013.76 1014.05 1014.24 1014.31 1014.29 1014.23 1014.15 1014.10 1014.08 1014.10 1014.14 1014.16 1014.14 1014.05 1013.88 1013.64 1013.34 1013.02 1012.69 1012.37
1011.95 1012.06 1012.21 1012.46 1012.83 1013.34 1013.94 1014.59 1015.20 1015.68 1015.95 1015.97 1015.72 1015.23 1014.57 1013.83 1013.11 1012.52 1012.13 1011.96 1012.01 1012.25 1012.62 1013.03 1013.41 1013.72 1013.92 1014.02 1014.03 1013.99 1013.93 1013.89 1013.89 1013.92 1013.97 1014.00 1014.01 1013.95 1013.83 1013.64 1013.40 1013.12 1012.84 1012.57
1011.85 1012.04 1012.24 1012.51 1012.86 1013.30 1013.79 1014.31 1014.77 1015.12 1015.28 1015.23 1014.96 1014.49 1013.89 1013.23 1012.60 1012.10 1011.77 1011.64 1011.71 1011.95 1012.29 1012.67 1013.03 1013.32 1013.53 1013.64 1013.67 1013.66 1013.64 1013.64 1013.67 1013.72 1013.80 1013.87 1013.90 1013.89 1013.82 1013.68 1013.49 1013.27 1013.04 1012.81
1011.69 1011.95 1012.21 1012.49 1012.80 1013.16 1013.53 1013.89 1014.20 1014.40 1014.45 1014.34 1014.06 1013.64 1013.12 1012.58 1012.07 1011.68 1011.44 1011.36 1011.45 1011.67 1011.98 1012.31 1012.63 1012.89 1013.08 1013.19 1013.25 1013.28 1013.31 1013.35 1013.42 1013.52 1013.64 1013.75 1013.83 1013.85 1013.82 1013.73 1013.59 1013.41 1013.22 1013.03
1011.54 1011.86 1012.16 1012.44 1012.71 1012.97 1013.21 1013.42 1013.56 1013.62 1013.57 1013.41 1013.13 1012.77 1012.36 1011.94 1011.58 1011.31 1011.15 1011.13 1011.23 1011.43 1011.69 1011.96 1012.22 1012.43 1012.60 1012.71 1012.80 1012.87 1012.95 1013.06 1013.19 1013.34 1013.50 1013.64 1013.76 1013.82 1013.82 1013.76 1013.65 1013.50 1013.34 1013.18
1011.45 1011.81 1012.13 1012.40 1012.61 1012.78 1012.89 1012.94 1012.94 1012.87 1012.72 1012.52 1012.25 1011.96 1011.65 1011.36 1011.13 1010.98 1010.92 1010.94 1011.05 1011.21 1011.41 1011.62 1011.81 1011.98 1012.12 1012.24 1012.35 1012.47 1012.61 1012.78 1012.97 1013.17 1013.38 1013.55 1013.69 1013.77 1013.78 1013.74 1013.64 1013.52 1013.37 1013.22
1011.44 1011.82 1012.12 1012.36 1012.50 1012.57 1012.56 1012.48 1012.35 1012.16 1011.94 1011.70 1011.45 1011.22 1011.01 1010.84 1010.73 1010.68 1010.70 1010.76 1010.87 1011.00 1011.15 1011.29 1011.43 1011.55 1011.67 1011.79 1011.93 1012.10 1012.30 1012.53 1012.78 1013.03 1013.27 1013.47 1013.61 1013.69 1013.71 1013.66 1013.57 1013.45 1013.31 1013.17
1011.50 1011.84 1012.10 1012.27 1012.34 1012.31 1012.19 1012.00 1011.76 1011.49 1011.21 1010.95 1010.72 1010.54 1010.42 1010.35 1010.34 1010.38 1010.46 1010.56 1010.67 1010.78 1010.88 1010.98 1011.07 1011.16 1011.26 1011.40 1011.57 1011.78 1012.04 1012.32 1012.62 1012.91 1013.17 1013.38 1013.52 1013.59 1013.60 1013.54 1013.44 1013.32 1013.18 1013.04
1011.56 1011.81 1011.99 1012.07 1012.06 1011.93 1011.72 1011.44 1011.12 1010.79 1010.48 1010.22 1010.02 1009.89 1009.84 1009.86 1009.94 1010.05 1010.18 1010.31 1010.43 1010.54 1010.61 1010.68 1010.74 1010.81 1010.92 1011.07 1011.27 1011.52 1011.81 1012.14 1012.47 1012.78 1013.05 1013.26 1013.40 1013.47 1013.46 1013.39 1013.28 1013.15 1013.01 1012.88
1011.53 1011.66 1011.72 1011.70 1011.59 1011.39 1011.10 1010.77 1010.41 1010.05 1009.74 1009.50 1009.33 1009.26 1009.27 1009.36 1009.51 1009.68 1009.87 1010.03 1010.17 1010.28 1010.35 1010.40 1010.45 1010.53 1010.63 1010.79 1011.01 1011.29 1011.61 1011.96 1012.30 1012.63 1012.90 1013.11 1013.24 1013.29 1013.27 1013.20 1013.08 1012.95 1012.82 1012.69
1011.32 1011.31 1011.24 1011.12 1010.92 1010.65 1010.32 1009.97 1009.60 1009.27 1008.98 1008.78 1008.66 1008.65 1008.73 1008.88 1009.08 1009.31 1009.54 1009.74 1009.90 1010.03 1010.11 1010.17 1010.22 1010.30 1010.41 1010.57 1010.80 1011.08 1011.40 1011.75 1012.09 1012.41 1012.68 1012.88 1013.00 1013.05 1013.02 1012.94 1012.83 1012.70 1012.58 1012.46
1010.88 1010.73 1010.55 1010.32 1010.05 1009.75 1009.42 1009.08 1008.76 1008.47 1008.25 1008.11 1008.06 1008.11 1008.25 1008.46 1008.71 1008.99 1009.25 1009.49 1009.68 1009.83 1009.93 1010.00 1010.06 1010.14 1010.25 1010.40 1010.61 1010.87 1011.17 1011.50 1011.82 1012.11 1012.36 1012.55 1012.66 1012.69 1012.67 1012.59 1012.48 1012.36 1012.24 1012.13
1010.22 1009.94 1009.65 1009.36 1009.05 1008.75 1008.45 1008.17 1007.93 1007.73 1007.60 1007.55 1007.58 1007.70 1007.89 1008.15 1008.45 1008.76 1009.05 1009.32 1009.54 1009.71 1009.83 1009.92 1009.99 1010.06 1010.15 1010.28 1010.45 1010.67 1010.92 1011.20 1011.47 1011.73 1011.94 1012.10 1012.19 1012.22 1012.18 1012.10 1012.00 1011.88 1011.76 1011.66
1009.33 1008.97 1008.62 1008.29 1007.99 1007.73 1007.51 1007.33 1007.19 1007.11 1007.10 1007.15 1007.27 1007.46 1007.71 1008.01 1008.33 1008.67 1008.99 1009.27 1009.52 1009.71 1009.85 1009.94 1010.01 1010.07 1010.14 1010.23 1010.34 1010.50 1010.68 1010.88 1011.09 1011.28 1011.44 1011.55 1011.62 1011.62 1011.58 1011.49 1011.37 1011.24 1011.12 1011.01
1008.29 1007.88 1007.51 1007.19 1006.94 1006.76 1006.64 1006.59 1006.59 1006.65 1006.77 1006.93 1007.14 1007.40 1007.70 1008.03 1008.37 1008.72 1009.05 1009.36 1009.62 1009.83 1009.98 1010.09 1010.16 1010.20 1010.23 1010.27 1010.32 1010.39 1010.48 1010.60 1010.71 1010.83 1010.92 1010.98 1011.00 1010.97 1010.89 1010.78 1010.64 1010.49 1010.34 1010.22
1007.14 1006.72 1006.37 1006.11 1005.94 1005.87 1005.89 1005.98 1006.14 1006.34 1006.59 1006.86 1007.16 1007.48 1007.83 1008.18 1008.54 1008.90 1009.24 1009.55 1009.83 1010.05 1010.23 1010.35 1010.42 1010.45 1010.45 1010.44 1010.42 1010.41 1010.41 1010.42 1010.44 1010.46 1010.48 1010.47 1010.43 1010.35 1010.23 1010.08 1009.90 1009.71 1009.53 1009.37
Thickness
5786 5775 5767 5769 5772 5765 5760 5756 5758 5766 5773 5765 5760 5760 5763 5763 5756 5748 5745 5743 5740 5737 5736 5732 5725 5720 5715 5710 5705 5701 5697 5695 5692 5687 5684 5682 5682 5683 5684 5685 5686 5686 5687 5689
5771 5767 5780 5784 5778 5768 5764 5762 5764 5769 5773 5764 5758 5760 5768 5766 5757 5752 5747 5744 5742 5737 5733 5729 5724 5718 5713 5707 5702 5699 5695 5692 5689 5685 5683 5681 5680 5679 5680 5680 5680 5680 5681 5683
5761 5773 5787 5780 5773 5765 5768 5764 5759 5757 5765 5768 5758 5753 5762 5764 5760 5754 5749 5745 5742 5736 5730 5725 5720 5715 5711 5706 5701 5697 5693 5691 5687 5684 5681 5678 5676 5674 5673 5673 5673 5675 5677 5678
5763 5775 5779 5773 5768 5764 5756 5767 5763 5758 5749 5749 5754 5731 5750 5756 5751 5749 5746 5743 5740 5735 5730 5724 5719 5714 5710 5706 5702 5696 5693 5689 5685 5682 5678 5672 5669 5666 5666 5667 5669 5671 5673 5674
5760 5770 5769 5765 5766 5766 5761 5768 5763 5758 5750 5745 5753 5741 5745 5755 5745 5745 5746 5744 5741 5736 5730 5724 5720 5715 5711 5707 5701 5696 5692 5688 5684 5680 5677 5672 5668 5665 5664 5665 5665 5666 5668 5669
5763 5779 5774 5769 5773 5771 5769 5765 5762 5759 5750 5732 5751 5742 5738 5746 5745 5745 5746 5745 5741 5737 5732 5726 5722 5717 5711 5707 5701 5696 5691 5687 5684 5680 5677 5673 5668 5665 5662 5661 5660 5661 5663 5664
5753 5766 5774 5777 5765 5766 5763 5749 5733 5731 5728 5737 5757 5744 5740 5749 5754 5750 5745 5744 5742 5737 5732 5726 5721 5715 5710 5706 5701 5697 5692 5687 5684 5680 5676 5673 5669 5665 5661 5659 5658 5658 5658 5660
5746 5746 5764 5770 5764 5756 5759 5751 5728 5717 5728 5741 5751 5741 5743 5758 5757 5754 5750 5746 5742 5738 5733 5727 5722 5717 5712 5708 5703 5698 5692 5688 5684 5681 5677 5674 5670 5666 5662 5659 5657 5657 5657 5658
5746 5744 5766 5771 5772 5764 5753 5752 5757 5737 5739 5736 5748 5750 5747 5757 5754 5752 5749 5746 5742 5739 5734 5729 5725 5720 5715 5710 5705 5700 5694 5690 5686 5682 5678 5674 5670 5666 5663 5661 5659 5657 5657 5659
5755 5741 5754 5761 5764 5762 5760 5754 5747 5734 5722 5722 5741 5745 5738 5743 5748 5750 5749 5746 5744 5741 5737 5732 5726 5722 5717 5713 5708 5704 5698 5693 5688 5684 5679 5675 5671 5668 5664 5662 5659 5658 5658 5658
5761 5748 5747 5751 5748 5751 5751 5748 5745 5739 5737 5718 5717 5727 5754 5750 5751 5750 5751 5750 5747 5742 5738 5733 5728 5724 5720 5716 5711 5706 5701 5695 5689 5684 5680 5675 5672 5669 5667 5663 5661 5659 5659 5658
5763 5754 5745 5752 5767 5768 5758 5753 5747 5728 5731 5736 5722 5727 5761 5759 5758 5756 5754 5753 5751 5745 5740 5736 5731 5726 5721 5716 5712 5707 5703 5697 5691 5686 5681 5677 5674 5671 5667 5664 5662 5661 5659 5659
5760 5747 5736 5736 5742 5751 5749 5751 5749 5744 5735 5730 5722 5729 5760 5763 5761 5761 5756 5754 5751 5747 5742 5737 5731 5726 5722 5718 5713 5709 5704 5699 5694 5688 5682 5678 5675 5671 5668 5665 5663 5661 5659 5658
5755 5746 5740 5730 5737 5748 5745 5748 5748 5740 5727 5730 5737 5742 5753 5760 5760 5760 5758 5755 5753 5748 5743 5738 5732 5728 5724 5720 5716 5711 5706 5702 5697 5691 5685 5680 5676 5673 5670 5667 5664 5661 5659 5657
5753 5742 5751 5757 5759 5756 5752 5750 5748 5741 5740 5735 5742 5746 5755 5761 5760 5760 5759 5757 5752 5748 5745 5740 5734 5730 5726 5722 5718 5713 5708 5704 5699 5693 5687 5682 5679 5675 5671 5668 5665 5662 5659 5657
5752 5744 5749 5750 5758 5755 5749 5752 5751 5748 5748 5746 5747 5749 5767 5769 5766 5762 5761 5757 5752 5748 5746 5743 5738 5733 5728 5725 5720 5715 5710 5706 5701 5695 5689 5685 5681 5676 5672 5669 5666 5662 5660 5657
5752 5744 5739 5740 5754 5750 5740 5757 5756 5754 5758 5753 5745 5755 5767 5764 5762 5761 5760 5758 5754 5751 5748 5744 5740 5736 5731 5728 5723 5716 5712 5708 5702 5697 5692 5687 5682 5678 5674 5671 5667 5663 5660 5658
5754 5748 5743 5740 5742 5723 5754 5781 5776 5765 5764 5767 5764 5766 5767 5765 5766 5766 5764 5759 5755 5753 5749 5745 5741 5738 5734 5731 5726 5720 5715 5709 5703 5698 5693 5689 5684 5679 5675 5672 5668 5665 5662 5659
5759 5748 5739 5737 5732 5745 5760 5773 5771 5760 5759 5772 5768 5767 5768 5770 5765 5762 5765 5762 5758 5755 5750 5746 5743 5739 5735 5731 5727 5721 5716 5710 5704 5698 5694 5690 5686 5681 5677 5673 5669 5667 5664 5661
5752 5749 5737 5735 5725 5728 5758 5777 5782 5766 5750 5774 5772 5767 5765 5763 5747 5748 5760 5760 5757 5753 5749 5746 5742 5739 5734 5730 5726 5719 5714 5710 5704 5700 5696 5693 5688 5683 5678 5674 5672 5669 5666 5663
5733 5733 5728 5725 5727 5746 5767 5776 5772 5739 5749 5773 5773 5768 5765 5758 5753 5756 5759 5756 5753 5750 5746 5743 5739 5734 5731 5728 5723 5716 5713 5708 5705 5701 5697 5693 5689 5685 5681 5677 5674 5671 5668 5665
5740 5734 5733 5731 5723 5736 5768 5767 5757 5759 5773 5774 5771 5769 5764 5761 5759 5757 5754 5751 5748 5744 5742 5739 5734 5730 5728 5726 5720 5714 5710 5708 5705 5701 5696 5692 5689 5686 5683 5678 5675 5672 5669 5665
5754 5755 5752 5750 5747 5762 5772 5770 5770 5773 5770 5769 5767 5765 5763 5757 5754 5752 5749 5746 5743 5740 5737 5734 5730 5726 5724 5722 5718 5711 5709 5708 5704 5699 5695 5692 5690 5687 5684 5679 5676 5673 5670 5666
5764 5771 5759 5755 5757 5762 5766 5768 5768 5768 5766 5765 5764 5761 5759 5753 5751 5748 5744 5741 5738 5736 5733 5729 5725 5720 5718 5718 5715 5711 5708 5706 5702 5697 5695 5693 5690 5687 5685 5681 5678 5673 5669 5666
5759 5761 5754 5750 5758 5758 5760 5763 5763 5761 5761 5760 5758 5757 5753 5750 5746 5743 5739 5736 5733 5730 5727 5724 5719 5715 5713 5712 5710 5707 5704 5702 5698 5695 5693 5692 5689 5687 5683 5681 5677 5674 5672 5668
5758 5756 5747 5745 5760 5757 5757 5762 5761 5756 5753 5753 5750 5747 5747 5744 5740 5737 5733 5730 5727 5723 5721 5717 5713 5709 5708 5706 5703 5701 5699 5696 5693 5691 5690 5687 5685 5683 5681 5678 5676 5676 5673 5670